User: anonymous   Login
Location: Unspecified
(0.0000°N, 0.0000°E)
Time: 11:09:36
(UTC+00:00)
Language:

SICH 2 - Orbit

View from above orbital plane
View from above orbital plane
View from above satellite
View from above satellite

Ground track
Ground track

The orbit data is extracted from the following two-line orbital elements,

1 37794U 11044G   19081.78198132 +.00000043 +00000-0 +17752-4 0  9991
2 37794 097.9996 150.4186 0011572 244.3049 226.2680 14.61824322404971
Epoch (UTC): 22 March 2019 18:46:03
Eccentricity: 0.0011572
inclination: 97.9996°
perigee height: 679 km
apogee height: 695 km
right ascension of ascending node: 150.4186°
argument of perigee: 244.3049°
revolutions per day: 14.61824322
mean anomaly at epoch: 226.2680°
orbit number at epoch: 40497

The dashed part of the orbit path shows where the satellite is in the earth's shadow,  

DLR